User: anonymous   Login
Location: Caltech
(34.1382°N, 118.1253°W)
Time: 07:41:58
(UTC-07:00)
Language:

AO-Echo - Orbit

View from above orbital plane
View from above orbital plane
View from above satellite
View from above satellite

Ground track
Ground track

The orbit data is extracted from the following two-line orbital elements,

1 28375U 04025K   16205.42140808  .00000023  00000-0  19920-4 0  9997
2 28375  98.3289 140.2574 0082214 194.4239 165.4603 14.41788543634449
Epoch (UTC): 23 July 2016 10:06:49
Eccentricity: 0.0082214
inclination: 98.3289°
perigee height: 694 km
apogee height: 811 km
right ascension of ascending node: 140.2574°
argument of perigee: 194.4239°
revolutions per day: 14.41788543
mean anomaly at epoch: 165.4603°
orbit number at epoch: 63444

The dashed part of the orbit path shows where the satellite is in the earth's shadow,  

DLR